This demonstration page uses our WeatherBlox Daily Observations layout. Learn more.

Left ArrowRight Arrow

Hourly Observations for July 4, 2022

Temp ( °F °C ) Dew Point ( °F °C ) Humidity (%) Winds ( mph kmh ) Pressure ( in mb ) Visibility ( mi km ) Precip ( " mm )
12:59 am 00:59 Mostly Clear 76 24.4 73 22.8 91 91 NE 3 6 30.10 1019 8 13 0.00 0.00
1:59 am 01:59 Partly Cloudy 74 23.3 72 22.2 94 94 Calm 30.10 1019 8 13 0.00 0.00
2:59 am 02:59 Mostly Clear 76 24.4 72 22.2 88 88 Calm 30.09 1019 8 13 0.00 0.00
3:59 am 03:59 Mostly Clear 75 23.9 71 21.7 88 88 N 3 6 30.09 1019 8 13 0.00 0.00
4:59 am 04:59 Mostly Clear 71 21.7 70 21.1 96 96 Calm 30.12 1020 8 13 0.00 0.00
5:59 am 05:59 Mostly Sunny 71 21.7 70 21.1 96 96 Calm 30.14 1021 8 13 0.00 0.00
6:59 am 06:59 Mostly Sunny 73 22.8 71 21.7 94 94 Calm 30.14 1021 7 11 0.00 0.00
7:59 am 07:59 Mostly Sunny 73 22.8 71 21.7 94 94 N 7 11 30.15 1021 7 11 0.00 0.00
8:59 am 08:59 Mostly Sunny 81 27.2 74 23.3 79 79 N 9 15 30.16 1021 9 14 0.00 0.00
9:59 am 09:59 Sunny N/A N/A N/A N 8 13 30.18 1022 10 16 0.00 0.00
10:59 am 10:59 Mostly Sunny 84 28.9 69 20.6 61 61 NNE 10 17 30.18 1022 10 16 0.00 0.00
11:59 am 11:59 Partly Cloudy 84 28.9 68 20 59 59 NE 9 15 30.19 1022 10 16 0.00 0.00
12:59 pm 12:59 Partly Cloudy 84 28.9 70 21.1 63 63 NE 10 17 30.18 1022 9 14 0.00 0.00
1:59 pm 13:59 Partly Cloudy 84 28.9 69 20.6 61 61 ENE 9 15 30.17 1022 10 16 0.00 0.00
2:59 pm 14:59 Partly Cloudy 86 30 62 16.7 45 45 ENE 12 19 30.16 1021 10 16 0.00 0.00
3:59 pm 15:59 Partly Cloudy 88 31.1 63 17.2 43 43 E 9 15 30.14 1021 10 16 0.00 0.00
4:59 pm 16:59 Partly Cloudy 88 31.1 61 16.1 40 40 ENE 12 19 30.14 1021 10 16 0.00 0.00
5:59 pm 17:59 Partly Cloudy 88 31.1 65 18.3 46 46 ENE 14 22 30.13 1020 10 16 0.00 0.00
6:59 pm 18:59 Partly Cloudy 82 27.8 63 17.2 53 53 E 13 20 30.14 1021 10 16 0.00 0.00
7:59 pm 19:59 Partly Cloudy 81 27.2 65 18.3 58 58 SE 6 9 30.14 1021 10 16 0.00 0.00
8:59 pm 20:59 Partly Cloudy 79 26.1 62 16.7 56 56 SE 7 11 30.15 1021 10 16 0.00 0.00
9:59 pm 21:59 Partly Cloudy 77 25 65 18.3 66 66 SSE 7 11 30.17 1022 10 16 0.00 0.00
10:59 pm 22:59 Partly Cloudy 75 23.9 64 17.8 69 69 SE 5 7 30.17 1022 9 14 0.00 0.00
11:59 pm 23:59 Partly Cloudy 75 23.9 64 17.8 69 69 SE 3 6 30.17 1022 8 13 0.00 0.00

Powered by AerisWeather